Weather Roundup
Issued by NWS Springfield, MO

Home | Current Version | Previous Version | Text Only | Print | Product List | Glossary On
Versions: 1 2 3 4 5 6 7 8 9 10 11 12 13 14 15 16 17 18 19 20 21 22 23 24 25 26 27 28 29 30 31 32 33 34 35 36 37 38 39 40 41 42 43 44 45 46 47 48 49 50
000
NZUS99 KSGF 041307
HRRSGF

HOURLY WEATHER
NATIONAL WEATHER SERVICE SPRINGFIELD MO
700 AM CST WED MAR 04 2015

......SGF CWA......

CITY           SKY/WX    TMP DP  RH WIND       PRES   REMARKS
SPRINGFIELD    FRZ RAIN  29  25  85 N21       30.08R WCI  16
JOPLIN         LGT SNOW  27  22  81 N14G25    30.12R FOG     WCI  16
WEST PLAINS    LGT RAIN  33  30  88 N10       30.00S FOG     WCI  25
ROLLA          CLOUDY    25  16  68 N16       30.08R WCI  12
OSAGE BEACH    CLOUDY    28  19  69 NW8G16    30.12R WCI  20
BRANSON        RAIN      32  32 100 N13       30.03R WCI  22

......SURROUNDING SGF CWA......

CITY           SKY/WX    TMP DP  RH WIND       PRES   REMARKS
CHANUTE        FLURRIES  20  15  81 N14G30    30.20R WCI   7
PARSONS        LGT SNOW  22  17  81 N18G24    30.19R WCI   7
COFFEYVILLE    FLURRIES  24  17  74 N20G33    30.16R WCI  10
EMPORIA        FLURRIES  19  12  74 N15G23    30.20R WCI   5
GROVE OK       MIX PCPN  34  34 100 N12G22    30.09R WCI  25
ROGERS AR      MIX PCPN  32  30  92 NE13      30.03R FOG     WCI  22
SILOAM SPRINGS CLOUDY    34  27  75 N13       30.05R WCI  25
HARRISON AR    LGT RAIN  34  34 100 NW9       30.01R FOG     WCI  27
NEAR YELLVILLE CLOUDY    37  34  87 N7        30.00R WCI  32

......KANSAS AND MISSOURI......

CITY           SKY/WX    TMP DP  RH WIND       PRES   REMARKS
KANSAS CTY INT FLURRIES  19   9  65 N16G24    30.22R WCI   4
DOWNTOWN KC    MOCLDY    21   6  52 N10       30.23S WCI  10
COLUMBIA       LGT SNOW  20  16  84 N14G23    30.16R VSB 1   WCI   7
SEDALIA        LGT SNOW  20  14  77 N20       30.18S WCI   4
ST JOSEPH      CLOUDY    18   9  68 N13       30.27R WCI   5
ST LOUIS       MOCLDY    26  14  60 N13G24    30.13R WCI  15
SPIRIT OF STL  CLOUDY    24  14  65 NW16      30.14R WCI  11
WICHITA        FLURRIES  20  14  77 N16       30.20R WCI   6
TOPEKA         CLOUDY    21   9  59 N14G21    30.28R WCI   8
OLATHE         CLOUDY    20   6  55 N18       30.20R WCI   5

......TENNESSEE......

CITY           SKY/WX    TMP DP  RH WIND       PRES   REMARKS
MEMPHIS        FOG       55  53  93 NW6       29.88R VSB 1
NASHVILLE      RAIN      51  50  96 N7        29.91R VSB 1

......ARKANSAS.......

CITY           SKY/WX    TMP DP  RH WIND       PRES   REMARKS
FAYETTEVILLE   LGT RAIN  34  34 100 N8        30.01R WCI  27
FT SMITH       RAIN      42  39  89 N13       29.94R FOG
LITTLE ROCK    LGT RAIN  52  49  89 NE6       29.90R VSB 1/2

......OKLAHOMA.......

CITY           SKY/WX    TMP DP  RH WIND       PRES   REMARKS
TULSA          CLOUDY    32  26  78 N22G29    30.10R WCI  19
PONCA CITY     CLOUDY    25  16  68 N21G30    30.16R WCI  11
MCALESTER      LGT RAIN  38  36  92 N17G24    30.02R FOG     WCI  28
OKLAHOMA CITY  CLOUDY    34  25  69 N20G28    30.04R WCI  23

......IOWA............

CITY           SKY/WX    TMP DP  RH WIND       PRES   REMARKS
DES MOINES     PTCLDY    12  -1  56 NW8       30.24R WCI   0
QUAD CITIES    CLOUDY    11   1  64 NW14      30.14R WCI  -5

......ILLINOIS........

CITY           SKY/WX    TMP DP  RH WIND       PRES   REMARKS
QUINCY         PTCLDY    14   3  61 NW15      30.17R WCI  -1
CHICAGO        MOCLDY    17  10  74 NW9       30.02R WCI   6



USA.gov is the U.S. government's official web portal to all federal, state and local government web resources and services.